Flag for Germany Weather past 2 weeks in Eckernförde, Schleswig-Holstein, Germany

Now
52 °F

Light rain. Overcast.


Feels Like: 49 °F
Forecast: 49 / 60 °F
Wind: 8 mph from Southwest

Location: Schleswig

Current Time: Jun 2, 2015 at 1:36:29 PM

Latest Report: Jun 2, 2015 at 1:00 PM


Visibility: 3 mi

Pressure: 29.68 "Hg

Humidity: 95%

Dew point: 51 °F

Location of EckernfördeLocation

Historic Weather in Eckernförde — Graph

°F

Eckernförde temperature yesterday

Maximum temperature yesterday: 58 °F (at 1:00 PM)
Minimum temperature yesterday: 47 °F (at 6:00 AM)
Average temperature yesterday: 53 °F

Past Weeks' High & Low Weather Summary

 TemperatureHumidityPressure
High65 °F (May 22, 2:00 PM)99% (May 25, 7:00 AM)30.28 "Hg (May 25, 7:00 AM)
Low40 °F (May 24, 6:00 AM)51% (May 22, 4:00 PM)29.50 "Hg (May 19, 1:00 AM)
Average51 °F79%29.93 "Hg
* Reported May 18 12:00 Noon — Jun 2 12:00 Noon, Eckernförde, Weather by CustomWeather, © 2015

Note: Actual official high and low records may vary slightly from our data, if they occured in-between our weather recording intervals... More about our weather records

Advertising

Eckernförde weather history for previous 24 hours

 ConditionsComfort  
Time TempWeatherWind HumidityBarometerVisibility
12:00 PM
Tue, Jun 2
54 °FLight rain. Overcast.8 mph81%29.68 "Hg9 mi
11:00 AM54 °FLight rain. Overcast.8 mph83%29.68 "Hg12 mi
10:00 AM55 °FLight rain. Overcast.10 mph78%29.67 "Hg9 mi
9:00 AM54 °FOvercast.8 mph83%29.68 "Hg9 mi
8:00 AM52 °FOvercast.6 mph91%29.71 "Hg8 mi
7:00 AM50 °FLight rain. Overcast.6 mph94%29.75 "Hg5 mi
4:00 AM52 °FLight rain. Overcast.5 mph66%29.83 "Hg19 mi
3:00 AM52 °FOvercast.3 mph70%29.86 "Hg22 mi
2:00 AM51 °FOvercast.2 mph76%29.88 "Hg22 mi
1:00 AM51 °FOvercast.2 mph77%29.90 "Hg22 mi
12:00 AM51 °FOvercast.2 mph77%29.93 "Hg22 mi
11:00 PM
Mon, Jun 1
51 °FPassing clouds.2 mph76%29.96 "Hg22 mi
10:00 PM50 °FPassing clouds.1 mph78%29.97 "Hg25 mi
9:00 PM54 °FScattered clouds.2 mph63%29.97 "Hg25 mi
8:00 PM55 °FScattered clouds.2 mph60%29.98 "Hg25 mi
7:00 PM56 °FScattered clouds.5 mph58%29.99 "Hg25 mi
6:00 PM58 °FOvercast.6 mph57%30.00 "Hg25 mi
4:00 PM56 °FOvercast.6 mph55%30.01 "Hg25 mi
3:00 PM57 °FPartly sunny.7 mph56%30.00 "Hg25 mi
2:00 PM56 °FOvercast.8 mph65%29.99 "Hg22 mi
1:00 PM58 °FOvercast.8 mph55%29.97 "Hg19 mi
Weather by CustomWeather, © 2015

See weather overviewHow to use our weather pages